Location: Dompnac
(44.5644°N, 4.1026°E)
Time: 07:54:12
(UTC+00:00)

N. Korean satellite - Visible Passes

Search period start: 26 November 2020 00:00
Search period end: 06 December 2020 00:00
Orbit: 452 x 504 km, 97.2° (Epoch: 25 November)

Date Brightness Start Highest point End Pass type
(mag) Time Alt. Az. Time Alt. Az. Time Alt. Az.
26 Nov 8.3 04:47:31 10° NNE 04:50:49 34° E 04:54:08 10° SSE visible
26 Nov 8.1 06:21:33 10° NNW 06:23:54 17° WNW 06:26:17 10° WSW visible
26 Nov 8.7 16:57:34 10° SSW 17:00:36 30° W 17:03:41 10° NNW visible
27 Nov 9.6 04:21:59 10° NE 04:24:24 17° E 04:26:50 10° SE visible
27 Nov 7.2 05:54:34 10° N 05:57:49 32° WNW 06:01:04 10° SW visible
28 Nov 6.4 05:28:02 10° N 05:31:37 70° WNW 05:35:14 10° SSW visible
29 Nov 7.4 05:01:48 10° NNE 05:05:20 52° E 05:08:54 10° S visible
29 Nov 9.4 17:12:32 10° SW 17:15:08 20° W 17:17:46 10° NW visible
30 Nov 8.9 04:35:54 10° NE 04:38:57 25° E 04:42:00 10° SSE visible
30 Nov 7.7 06:09:18 10° NNW 06:12:10 23° WNW 06:15:04 10° WSW visible
30 Nov 7.9 16:45:27 10° S 16:48:42 43° W 16:52:01 10° NNW visible
01 Dec 10.0 04:10:47 10° ENE 04:12:27 13° E 04:14:08 10° ESE visible
01 Dec 6.8 05:42:32 10° N 05:46:01 45° WNW 05:49:31 10° SSW visible
02 Dec 6.6 05:16:07 10° NNE 05:19:45 83° E 05:23:25 10° S visible
02 Dec 9.8 17:27:48 10° SW 17:29:38 14° W 17:31:28 10° WNW visible
03 Dec 8.1 04:50:00 10° NNE 04:53:24 37° E 04:56:49 10° SSE visible
03 Dec 8.2 06:24:09 10° NNW 06:26:27 16° WNW 06:28:45 10° WSW visible
03 Dec 8.8 17:00:07 10° SSW 17:03:07 28° W 17:06:10 10° NW visible
04 Dec 9.4 04:24:18 10° NE 04:26:57 19° E 04:29:35 10° SE visible
04 Dec 7.4 05:57:05 10° N 06:00:19 30° WNW 06:03:34 10° SW visible
04 Dec 7.0 16:33:18 10° S 16:36:42 63° W 16:40:10 10° NNW visible
05 Dec 6.5 05:30:28 10° N 05:34:05 64° WNW 05:37:44 10° SSW visible
